Regional Weather Roundup
Issued by NWS

Home | Current Version | Previous Version | Graphics & Text | Print | Product List | Glossary On
Versions: 1 2 3 4 5 6 7 8 9 10 11 12 13 14 15 16 17 18 19 20 21 22 23 24 25 26 27 28 29 30 31 32 33 34 35 36 37 38 39 40 41 42 43 44 45 46 47 48 49 50
864
ASUS43 KLSX 300857
RWRMO

WEATHER SUMMARY FOR MISSOURI
NATIONAL WEATHER SERVICE SPRINGFIELD MO
400 AM CDT THU MAR 30 2017

NOTE: "FAIR" INDICATES FEW OR NO CLOUDS BELOW 12,000 FEET WITH NO
       SIGNIFICANT WEATHER AND/OR OBSTRUCTIONS TO VISIBILITY.
       CURRENT SKY AND/OR WEATHER CONDITIONS ARE NOT AVAILABLE FOR
       CHILLICOTHE AND FARMINGTON.

MOZ001>031-035>038-043-044-053-054-301000-
...NORTHERN AND WESTERN MISSOURI...

CITY           SKY/WX    TMP DP  RH WIND       PRES   REMARKS
KANSAS CTY INT DRIZZLE   51  51 100 E8        29.57S
LEE`S SUMMIT   CLOUDY    52  48  86 S14       29.57F
ST JOSEPH      CLOUDY    49  49 100 E6        29.58F
CHILLICOTHE      N/A     48  46  93 NE9       29.61F

$$
MOZ066>068-077>081-088>096-101>105-301000-
...SOUTHWEST MISSOURI...

CITY           SKY/WX    TMP DP  RH WIND       PRES   REMARKS
SPRINGFIELD    MOCLDY    53  48  83 SW8       29.62F
JOPLIN         CLOUDY    48  43  82 SW16G22   29.63F

$$
MOZ032>034-039>042-045>050-055>058-069>072-301000-
...CENTRAL MISSOURI...

CITY           SKY/WX    TMP DP  RH WIND       PRES   REMARKS
COLUMBIA       LGT RAIN  61  61 100 SE6       29.59S FOG
JEFFERSON CITY LGT RAIN  64  60  87 CALM      29.58F
ROLLA          MOCLDY    59  58  96 SW7       29.60F
SEDALIA        CLEAR     55  54  96 S12       29.60S
WARRENSBURG    CLOUDY    54  52  94 S6        29.58F FOG

$$
MOZ051-052-059>065-301000-
...EAST CENTRAL MISSOURI...

CITY           SKY/WX    TMP DP  RH WIND       PRES   REMARKS
ST LOUIS INTL  CLOUDY    60  56  86 SE9       29.60F

$$
MOZ072>076-082>087-097>100-106>115-301000-
...SOUTH CENTRAL AND SOUTHEAST MISSOURI...

CITY           SKY/WX    TMP DP  RH WIND       PRES   REMARKS
CAPE GIRARDEAU CLOUDY    69  56  62 S16G24    29.66F
POPLAR BLUFF   CLOUDY    68  60  75 S9        29.65F
WEST PLAINS    CLOUDY    63  59  87 S7        29.64F

$$



USA.gov is the U.S. government's official web portal to all federal, state and local government web resources and services.